Location: Evergreen Manor
(41.4083°N, 81.4939°W)
Time: 08:16:00
(UTC+00:00)

ALOS - Pass Details

Date: 11 December 2019
Orbit: 683 x 685 km, 97.8° (Epoch: 24 January)

Event Time Altitude Azimuth Distance (km) Brightness Sun altitude
Rises 10:12:44 0° 21° (NNE) 3,060 5.8 -27.1°
Reaches altitude 10° 10:15:08 10° 29° (NNE) 2,139 5.0 -26.6°
Maximum altitude 10:19:28 37° 97° (E) 1,067 3.7 -25.8°
Drops below altitude 10° 10:23:46 10° 165° (SSE) 2,123 5.1 -25.0°
Sets 10:26:09 0° 173° (S) 3,034 5.8 -24.6°
